Regional Weather Roundup
Issued by NWS Cleveland, OH

Home | Current Version | Previous Version | Graphics & Text | Print | Product List | Glossary On
Versions: 1 2 3 4 5 6 7 8 9 10 11 12 13 14 15 16 17 18 19 20 21 22 23 24 25 26 27 28 29 30 31 32 33 34 35 36 37 38 39 40 41 42 43 44 45 46 47 48 49 50
000
ASUS41 KCLE 280710
RWRCLE
OHIO REGIONAL WEATHER ROUNDUP
NATIONAL WEATHER SERVICE CLEVELAND, OH
300 AM EDT TUE JUL 28 2015

NOTE: "FAIR" INDICATES FEW OR NO CLOUDS BELOW 12,000 FEET WITH NO
SIGNIFICANT WEATHER AND/OR OBSTRUCTIONS TO VISIBILITY.

OHZ001>008-015>018-024>027-034-035-043-044-280800-
   NORTHWEST OHIO

CITY           SKY/WX    TMP DP  RH WIND       PRES   REMARKS
DEFIANCE       CLEAR     67  62  84 CALM      30.02F
FINDLAY        CLEAR     67  61  81 E3        30.01F
TOLEDO EXPRESS CLEAR     63  62  97 CALM      30.02F
TOLEDO EXEC    CLEAR     70  62  76 NE3       30.03F
LIMA           PTCLDY    67  62  84 E6        30.01F
$$

OHZ009>014-019>023-028>033-038-089-280800-
   NORTHEAST OHIO

CITY           SKY/WX    TMP DP  RH WIND       PRES   REMARKS
CLE-HOPKINS    PTCLDY    73  59  61 E3        30.04F
CLE-LAKEFRONT  CLEAR     74  63  68 CALM      30.01F
CUY CO. ARPT   NOT AVBL
LORAIN-ELYRIA  PTCLDY    64  62  93 CALM      30.03F
ASHTABULA      CLEAR     62  61  96 CALM      30.05F FOG
AKRON-CANTON   PTCLDY    69  62  78 NE7       30.03F
WOOSTER        PTCLDY    63  61  93 N3        30.04F
MANSFIELD      CLEAR     68  62  81 CALM      30.04F
YOUNGSTOWN     PTCLDY    63  61  93 E7        30.04F
$$

OHZ042-051>053-060>062-070>072-077>081-280800-
  SOUTHWEST OHIO

CITY           SKY/WX    TMP DP  RH WIND       PRES   REMARKS
CINC-COVINGTON CLOUDY    77  72  84 CALM      29.98F
CINC-LUNKEN    MOCLDY    70  70 100 CALM      29.98S FOG
HAMILTON       PTCLDY    70  69  97 CALM      29.99S FOG
DAYTON         PTCLDY    73  66  78 E6        30.00F
WRIGHT-PAT AFB PTCLDY    72  69  90 N1        29.98F
DAYTON GENERAL   N/A    N/A N/A N/A MISG      29.98F
WILMINGTON     PTCLDY    71  69  93 CALM      29.99F FOG
$$

OHZ036-037-039>041-045>050-054>059-063>069-073>076-082>088-280800-
  CENTRAL AND SOUTHEAST OHIO

CITY           SKY/WX    TMP DP  RH WIND       PRES   REMARKS
COLUMBUS       MOCLDY    72  65  78 N3        29.99F
OSU AIRPORT    PTCLDY    71  64  78 N3        30.00F
BOLTON FIELD   PTCLDY    72  69  89 CALM      30.00F
RICKENBACK AFB CLOUDY    73  68  84 NE3       29.98F
NEWARK         CLEAR     67  65  93 CALM      30.00F
MARION         CLEAR     66  62  87 NE3       30.02F
LANCASTER      PTCLDY    70  67  90 N5        30.00F
ZANESVILLE     CLEAR     70  66  87 CALM      30.00F
NEW PHILLY     MOCLDY    65  64  97 CALM      30.02F FOG
$$



USA.gov is the U.S. government's official web portal to all federal, state and local government web resources and services.